This demonstration page uses our WeatherBlox Daily Observations layout. Learn more.

Left ArrowRight Arrow

38.89511, -77.03637

Hourly Observations for June 5, 2022

Temp ( °F °C ) Dew Point ( °F °C ) Humidity (%) Winds ( mph kmh ) Pressure ( in mb ) Visibility ( mi km ) Precip ( " mm )
12:52 am 00:52 Partly Cloudy 68 20 55 12.8 63 63 N 7 11 29.91 1013 10 16 0.00 0.00
1:52 am 01:52 Partly Cloudy 68 20 50 10 53 53 NNW 6 9 29.92 1013 10 16 0.00 0.00
2:52 am 02:52 Partly Cloudy 66 18.9 50 10 56 56 N 7 11 29.92 1013 10 16 0.00 0.00
3:52 am 03:52 Partly Cloudy 66 18.9 45 7.2 47 47 N 8 13 29.92 1013 10 16 0.00 0.00
4:52 am 04:52 Partly Cloudy 67 19.4 40 4.4 37 37 NNE 10 17 29.92 1013 10 16 0.00 0.00
5:52 am 05:52 Mostly Sunny 65 18.3 39 3.9 39 39 NNE 9 15 29.95 1014 10 16 0.00 0.00
6:52 am 06:52 Mostly Sunny 66 18.9 42 5.6 42 42 NNE 10 17 29.98 1015 10 16 0.00 0.00
7:52 am 07:52 Mostly Sunny 68 20 45 7.2 44 44 NE 13 20 29.99 1016 10 16 0.00 0.00
8:52 am 08:52 Mostly Sunny 70 21.1 46 7.8 42 42 ENE 13 20 30.00 1016 10 16 0.00 0.00
9:52 am 09:52 Mostly Sunny 72 22.2 44 6.7 37 37 NE 14 22 30.01 1016 10 16 0.00 0.00
10:52 am 10:52 Mostly Sunny 74 23.3 44 6.7 34 34 ENE 15 24 30.01 1016 10 16 0.00 0.00
11:52 am 11:52 Mostly Sunny 75 23.9 45 7.2 34 34 NE 10 17 30.02 1017 10 16 0.00 0.00
12:52 pm 12:52 Mostly Sunny 76 24.4 45 7.2 33 33 NE 9 15 30.01 1016 10 16 0.00 0.00
1:52 pm 13:52 Mostly Sunny 78 25.6 48 8.9 35 35 E 6 9 30.00 1016 10 16 0.00 0.00
2:52 pm 14:52 Mostly Sunny 78 25.6 47 8.3 33 33 E 7 11 29.99 1016 10 16 0.00 0.00
3:52 pm 15:52 Partly Cloudy 80 26.7 48 8.9 33 33 VRB 7 11 29.98 1015 10 16 0.00 0.00
4:52 pm 16:52 Partly Cloudy 79 26.1 48 8.9 34 34 E 7 11 29.96 1015 10 16 0.00 0.00
5:52 pm 17:52 Partly Cloudy 77 25 49 9.4 37 37 SE 8 13 29.96 1014 10 16 0.00 0.00
6:52 pm 18:52 Partly Cloudy 76 24.4 52 11.1 43 43 ESE 10 17 29.96 1015 10 16 0.00 0.00
7:52 pm 19:52 Partly Cloudy 74 23.3 50 10 43 43 SE 12 19 29.97 1015 10 16 0.00 0.00
8:52 pm 20:52 Partly Cloudy 71 21.7 50 10 47 47 SSE 6 9 29.98 1015 10 16 0.00 0.00
9:52 pm 21:52 Partly Cloudy 70 21.1 49 9.4 47 47 SE 7 11 30.00 1016 10 16 0.00 0.00
10:52 pm 22:52 Mostly Cloudy 69 20.6 49 9.4 49 49 SSE 6 9 30.01 1016 10 16 0.00 0.00
11:52 pm 23:52 Mostly Cloudy 67 19.4 50 10 55 55 SSE 7 11 30.02 1017 10 16 0.00 0.00

Powered by AerisWeather